This demonstration page uses our WeatherBlox Daily Observations layout. Learn more.

Left ArrowRight Arrow

39.92423, -83.80882

Hourly Observations for August 3, 2019

Temp ( °F °C ) Dew Point ( °F °C ) Humidity (%) Winds ( mph kmh ) Pressure ( in mb ) Visibility ( mi km ) Precip ( " mm )
12:56 am 00:56 Clear 64 17.8 58 14.4 81 81 ENE 5 7 30.09 1019 10 16.0934 N/A
1:56 am 01:56 Clear 64 17.8 59 15 84 84 NE 5 7 30.08 1019 10 16.0934 N/A
2:56 am 02:56 Clear 60 15.6 58 14.4 93 93 N 6 9 30.08 1019 10 16.0934 N/A
3:56 am 03:56 Clear 61 16.1 58 14.4 90 90 NE 5 7 30.07 1018 10 16.0934 N/A
4:56 am 04:56 Clear 59 15 58 14.4 96 96 N N/A 30.07 1018 10 16.0934 N/A
5:56 am 05:56 Clear 59 15 58 14.4 96 96 N N/A 30.07 1018 10 16.0934 N/A
6:31 am 06:31 Mostly Clear 57 14 57 14 100 100 N N/A 30.09 1019 9 14.48406 N/A
6:56 am 06:56 Sunny 58 14.4 57 13.9 97 97 N N/A 30.09 1019 10 16.0934 N/A
7:56 am 07:56 Sunny 64 17.8 61 16.1 90 90 NNE 5 7 30.08 1019 10 16.0934 N/A
8:56 am 08:56 Sunny 70 21.1 62 16.7 76 76 NE 9 15 30.1 1019 10 16.0934 N/A
9:56 am 09:56 Sunny 74 23.3 63 17.2 69 69 NE 10 17 30.09 1019 10 16.0934 N/A
10:56 am 10:56 Sunny 77 25 63 17.2 62 62 ENE 6 9 30.09 1019 10 16.0934 N/A
11:56 am 11:56 Sunny 79 26.1 60 15.6 52 52 ENE 6 9 30.09 1019 10 16.0934 N/A
12:56 pm 12:56 Sunny 81 27.2 52 11.1 37 37 NE 8 13 30.08 1019 10 16.0934 N/A
1:56 pm 13:56 Sunny 83 28.3 57 13.9 41 41 SSE 6 9 30.06 1018 10 16.0934 N/A
2:56 pm 14:56 Sunny 83 28.3 55 12.8 38 38 N N/A 30.05 1018 10 16.0934 N/A
3:56 pm 15:56 Sunny 84 28.9 54 12.2 36 36 NW 7 11 30.04 1017 10 16.0934 N/A
4:56 pm 16:56 Sunny 84 28.9 55 12.8 37 37 NNW 7 11 30.02 1017 10 16.0934 N/A
5:56 pm 17:56 Sunny 83 28.3 53 11.7 36 36 VRB 3 6 30.01 1016 10 16.0934 N/A
6:56 pm 18:56 Sunny 82 27.8 53 11.7 37 37 ENE 8 13 29.99 1016 10 16.0934 N/A
7:56 pm 19:56 Sunny 78 25.6 58 14.4 50 50 ENE 5 7 30 1016 10 16.0934 N/A
8:56 pm 20:56 Clear 74 23.3 58 14.4 57 57 N N/A 30.01 1016 10 16.0934 N/A
9:56 pm 21:56 Clear 70 21.1 60 15.6 71 71 N N/A 30.02 1017 10 16.0934 N/A
10:56 pm 22:56 Clear 68 20 59 15 73 73 N N/A 30.03 1017 10 16.0934 N/A
11:56 pm 23:56 Clear 64 17.8 59 15 84 84 N N/A 30.04 1017 10 16.0934 N/A

Powered by AerisWeather